Location: Ocean City
(38.3360°N, 75.0850°W)
Time: 00:52:38
(UTC-04:00)

STARS - Pass Details

Date: 27 May 2019
Orbit: 624 x 640 km, 98.3° (Epoch: 19 June)

Event Time Altitude Azimuth Distance (km) Brightness Sun altitude
Rises 21:29:06 0° 1° (N) 2,942 ? -12.8°
Reaches altitude 10° 21:31:31 10° 350° (N) 2,026 ? -13.2°
Maximum altitude 21:35:19 29° 291° (WNW) 1,163 ? -13.8°
Drops below altitude 10° 21:39:05 10° 231° (SW) 2,006 ? -14.3°
Sets 21:41:28 0° 220° (SW) 2,906 ? -14.6°
